Regional Weather Roundup
Issued by NWS

Current Version | Previous Version | Text Only | Print | Product List | Glossary On
Versions: 1 2 3 4 5 6 7 8 9 10 11 12 13 14 15 16 17 18 19 20 21 22 23 24 25 26 27 28 29 30 31 32 33 34 35 36 37 38 39 40 41 42 43 44 45 46 47 48 49 50
000
ASUS45 KCYS 020310
RWRWY

WYOMING REGIONAL WEATHER ROUNDUP
NATIONAL WEATHER SERVICE CHEYENNE WY
900 PM MDT TUE SEP 01 2015

NOTE:  "FAIR" INDICATES FEW OR NO CLOUDS BELOW 12,000 FEET
WITH NO SIGNIFICANT WEATHER AND/OR OBSTRUCTIONS TO VISIBILITY.

WYZ001-020400-
YELLOWSTONE NATIONAL PARK

CITY           SKY/WX    TMP DP  RH WIND       PRES   REMARKS
LK YELLOWSTONE   N/A     52  31  44 W3        30.18R
W YELLOWSTONE  NOT AVBL

$$
WYZ002>013-054>058-071-098>099-020400-
NORTHERN WYOMING

CITY           SKY/WX    TMP DP  RH WIND       PRES   REMARKS
JACKSON        FAIR      63  37  39 CALM      30.07R
CODY           FAIR      73  34  23 SW7       29.92R
GREYBULL       FAIR      81  32  17 CALM      29.80R
WORLAND        FAIR      77  34  21 SW10      29.83R
SHERIDAN       FAIR      63  43  48 SW9       29.84R
BUFFALO        FAIR      68  33  27 SW8       29.94R
GILLETTE       FAIR      60  37  42 S3        29.89R
HULETT         FAIR      68  46  45 SE8       29.92S
NEWCASTLE        N/A     72  28  20 E7        29.91R

$$
WYZ014>020-022>026-101>103-020400-
CENTRAL WYOMING

CITY           SKY/WX    TMP DP  RH WIND       PRES   REMARKS
BIG PINEY      FAIR      60  32  34 W8        30.14R
PINEDALE       FAIR      64  36  34 E3        30.15R
DUBOIS         FAIR      63  28  27 NW6       30.12R
LANDER         FAIR      75  38  26 SW21G32   29.99R
RIVERTON       FAIR      75  39  27 SW14      29.99R
CASPER         MOCLDY    76  36  23 S7        30.03R
DOUGLAS        FAIR      73  34  23 CALM      29.98R

$$
WYZ021-027>030-104>119-020400-
SOUTHERN WYOMING

CITY           SKY/WX    TMP DP  RH WIND       PRES   REMARKS
EVANSTON       FAIR      67  34  29 SW9       30.15R
KEMMERER       FAIR      64  32  29 W5        30.18R
FORT BRIDGER   MOCLDY    66  41  39 S7        30.18R
ROCK SPRINGS   FAIR      65  46  50 SW10      30.15R
DIXON          CLOUDY    63  47  54 NE10      30.25R
RAWLINS        FAIR      66  39  37 S23G37    30.20R
SARATOGA       FAIR      63  41  45 W21G29    30.27R
LARAMIE        FAIR      59  44  57 W12       30.23S
CHEYENNE       FAIR      70  39  32 W12       30.12R
TORRINGTON     NOT AVBL
PINE BLUFFS    FAIR      70  37  30 SW7       30.04R

$$



USA.gov is the U.S. government's official web portal to all federal, state and local government web resources and services.